GFSNGP_700_spd_135.txt.gz
Wind_Speed
6 5 7 6 1 6 4 6 4 3 5 13 15 18 20 21 20 20 23 24 27 29 27 26 25 22 22 14 8 8 15 16 16 14 12 16 19 21 26 28 31 36 39 42
3 3 11 6 4 1 2 3 3 5 6 12 12 13 16 20 20 19 20 23 25 26 25 26 27 29 28 25 21 11 8 7 5 6 11 14 19 23 23 24 25 28 33 35
4 6 6 7 8 9 2 1 2 2 6 10 10 12 14 19 21 21 21 22 22 23 24 24 22 23 23 23 21 21 19 15 9 4 2 5 5 14 17 19 30 31 31 34
2 7 6 5 5 6 8 8 5 7 8 11 11 12 12 18 18 18 19 19 19 21 21 21 21 19 18 17 18 14 11 9 6 6 6 6 8 10 11 17 20 23 27 30
4 5 4 5 4 7 5 8 10 10 11 10 11 14 17 19 17 17 18 19 19 19 19 21 21 20 17 16 15 15 14 11 10 8 7 8 10 11 12 14 17 20 23 26
7 9 4 10 5 4 5 9 10 11 14 12 9 4 17 17 16 16 17 17 17 19 18 18 18 18 19 18 16 16 15 13 13 12 11 9 10 11 13 14 16 17 19 21
9 7 3 5 5 4 3 4 7 12 12 11 12 11 13 15 17 18 18 18 18 18 18 18 17 17 17 17 18 18 18 16 13 13 13 12 12 13 15 16 19 21 22 23
9 8 7 9 5 6 9 10 9 9 10 11 10 12 14 16 16 16 17 17 18 18 18 18 17 16 16 15 15 15 15 15 14 13 13 13 14 15 16 16 17 19 21 24
6 6 7 8 10 10 8 6 4 6 9 10 11 12 13 15 16 17 17 18 18 18 18 19 18 17 17 16 16 15 14 14 15 15 15 16 15 15 16 17 17 18 20 22
7 7 9 8 8 7 5 4 6 8 9 10 12 13 15 16 19 19 19 19 18 18 18 18 18 19 19 18 17 17 16 16 17 17 16 15 16 16 17 17 18 18 18 19
12 9 8 9 8 6 4 4 6 8 10 11 13 14 15 16 17 18 20 20 20 19 19 18 17 17 18 19 19 19 19 18 17 17 18 20 19 18 19 20 20 19 20 21
10 6 8 8 8 6 6 8 9 10 10 11 12 14 16 17 17 18 18 19 20 21 21 21 20 19 18 17 17 18 19 20 19 18 17 18 19 21 20 19 20 20 20 21
11 9 7 7 7 6 7 10 11 11 11 11 12 14 15 17 18 19 21 22 23 22 22 22 22 22 22 21 21 19 18 18 18 19 18 18 18 18 19 21 21 19 19 19
8 9 9 8 7 8 10 11 11 11 11 12 12 13 14 15 17 18 20 22 23 24 25 24 24 23 23 22 22 23 22 22 20 19 19 19 19 19 20 20 20 21 21 20
8 9 8 8 7 9 9 9 8 9 9 10 11 12 13 14 15 17 18 20 22 23 23 23 24 23 23 23 23 23 22 22 22 21 21 21 20 20 20 21 21 21 22 22
7 7 7 7 7 8 7 6 6 7 7 7 9 10 10 12 13 14 16 17 18 20 21 22 22 22 22 22 22 22 22 23 23 22 21 21 22 21 21 20 20 22 21 20
7 7 7 6 6 5 5 5 4 4 4 6 7 8 10 11 13 14 16 17 19 19 19 20 20 21 22 22 21 21 21 22 22 22 22 22 21 21 21 21 21 20 20 20
8 7 7 5 5 4 3 1 1 2 4 5 7 8 10 11 12 14 16 17 18 19 20 22 22 22 22 21 21 21 21 21 21 21 21 21 22 21 21 21 21 21 20 19
8 7 6 5 4 3 3 2 0 2 3 5 6 9 10 11 12 13 15 16 18 20 20 21 20 21 21 21 21 22 22 22 21 21 21 21 21 21 21 21 21 21 20 20
8 7 6 6 6 6 4 2 1 2 3 6 8 8 9 10 12 13 15 16 18 18 18 19 20 20 21 21 22 22 22 22 22 22 22 21 21 20 21 21 21 21 21 21
8 8 8 8 8 7 5 4 2 2 5 7 7 8 8 9 10 12 13 14 15 16 17 18 19 20 20 21 21 21 22 22 22 22 22 22 22 22 21 21 21 21 21 21
9 9 10 11 10 8 7 6 4 3 5 7 7 7 7 8 9 10 11 13 15 16 17 18 19 19 20 20 21 21 22 22 22 22 22 22 22 22 22 22 21 21 21 21
10 12 12 12 11 10 9 8 6 6 7 8 8 8 8 9 9 10 11 12 13 14 15 16 17 18 19 20 21 21 22 22 23 23 23 23 23 23 23 23 23 22 22 22
12 13 14 14 12 11 12 10 9 9 9 10 11 11 12 12 12 12 13 13 14 14 15 16 18 19 20 21 22 23 23 24 23 23 23 23 23 23 23 23 24 23 23 23
14 15 16 15 15 14 14 13 12 12 12 13 14 14 15 16 16 16 15 16 16 16 17 18 19 20 21 22 23 24 25 26 26 26 25 25 24 23 23 24 24 24 24 24
15 16 17 18 18 17 17 17 15 14 15 16 17 18 18 19 19 19 19 19 19 20 20 21 22 23 24 25 25 26 26 27 27 27 27 27 27 26 25 24 24 24 24 25
17 19 18 18 18 18 18 19 19 18 19 20 22 22 22 22 22 22 23 23 23 23 24 24 25 26 27 27 27 28 28 28 28 28 28 28 27 27 26 25 24 24 23 24

GFSNGP_700_spd_138.txt.gz
Wind_Speed
7 5 7 6 7 8 3 4 3 0 5 12 14 15 16 18 19 21 22 23 24 26 25 26 26 30 30 29 29 32 25 15 10 9 10 11 10 12 14 31 25 22 25 30
7 8 12 7 8 5 2 0 4 1 5 11 12 13 14 17 19 21 22 23 25 26 26 26 26 26 26 29 32 34 31 27 16 15 5 7 7 11 17 19 18 22 19 25
10 11 8 7 14 11 12 8 4 4 8 10 11 13 14 16 19 21 22 22 23 24 27 27 27 28 27 29 27 27 27 29 27 26 22 16 19 7 3 8 12 17 17 25
6 10 3 5 11 12 9 11 10 8 8 10 11 14 15 15 21 21 20 20 21 21 22 24 27 26 25 24 24 24 22 21 18 13 11 11 12 10 9 4 4 6 10 11
5 10 4 6 10 6 5 9 9 11 11 12 7 16 21 18 23 20 19 18 20 21 22 22 23 23 23 22 21 21 19 17 16 15 13 12 10 7 6 8 8 6 7 7
10 10 3 10 9 8 6 8 13 8 10 12 8 3 17 19 18 16 17 18 18 18 19 20 20 21 20 20 20 19 18 17 16 16 16 15 13 11 12 13 13 11 12 11
13 8 4 8 9 6 4 6 7 10 10 10 8 7 9 11 14 16 17 18 19 19 19 19 19 19 20 20 18 17 18 20 19 16 14 14 15 15 14 15 16 17 18 18
12 11 5 10 6 7 9 9 11 8 6 7 7 8 9 11 12 15 17 19 20 20 21 21 20 20 20 20 20 20 18 16 17 19 18 16 15 16 16 17 17 17 18 19
8 9 10 7 11 11 12 10 7 7 7 8 8 11 12 14 14 14 16 17 19 21 21 22 22 22 20 20 20 20 20 20 18 16 16 18 17 16 15 16 16 17 17 18
8 5 10 9 9 10 8 6 7 7 8 9 10 11 15 16 17 17 17 17 19 20 21 21 22 23 23 23 22 21 21 21 21 21 20 19 20 20 20 19 19 19 19 19
14 14 13 10 8 7 7 6 7 9 10 11 13 14 15 16 17 18 18 18 19 20 21 22 23 23 23 23 23 23 22 22 22 22 21 22 22 21 21 21 21 21 22 22
13 11 11 8 8 8 6 6 8 10 11 12 13 14 15 15 16 17 18 19 20 21 22 23 23 23 24 24 24 24 25 24 23 22 23 23 23 25 25 24 23 23 23 22
11 10 8 8 7 6 7 8 10 12 12 12 11 13 14 14 15 16 17 19 20 21 22 23 23 24 24 23 23 23 23 24 25 24 24 23 23 22 22 23 24 24 24 24
11 9 10 8 5 7 8 10 11 10 9 10 10 11 12 13 14 16 17 19 21 22 22 23 24 24 24 24 24 23 23 23 23 23 24 23 23 23 23 23 22 22 23 22
8 9 8 7 6 7 9 10 9 8 7 8 8 9 10 11 13 14 16 18 19 20 22 23 24 24 24 24 24 24 23 23 22 22 23 23 23 23 23 24 24 22 22 23
8 8 7 6 6 7 8 7 6 5 4 4 5 6 8 9 11 13 14 15 17 18 20 21 23 24 25 26 26 26 25 25 24 23 23 22 22 22 23 23 23 23 22 22
6 5 5 6 7 7 6 5 3 1 2 3 4 6 7 9 10 11 12 14 15 17 19 21 22 23 24 25 25 25 26 26 26 25 25 24 24 23 23 23 23 23 24 24
5 5 7 7 6 5 4 3 2 1 1 3 3 5 7 8 9 9 10 12 14 16 18 20 21 22 23 24 25 25 26 26 26 26 26 25 25 25 25 25 24 24 24 23
7 7 8 7 7 5 4 4 2 1 2 2 3 4 6 6 6 7 10 12 14 16 17 19 20 21 22 23 23 25 25 26 26 27 27 26 26 25 25 25 25 25 24 24
9 8 9 8 7 6 6 5 3 3 3 2 3 4 4 5 5 7 9 11 13 15 17 17 18 19 20 21 22 23 24 25 26 26 27 27 27 27 27 26 26 26 26 26
9 9 10 10 10 9 8 6 5 5 4 3 4 5 6 6 6 7 9 10 12 14 15 16 18 18 19 20 21 22 23 24 25 25 26 27 27 27 27 28 27 27 26 26
10 11 11 12 12 11 10 8 8 7 6 6 7 8 9 9 10 10 11 13 14 15 16 16 17 19 20 21 21 22 23 24 25 25 26 26 27 27 27 28 28 28 27 27
10 12 13 14 14 14 13 10 11 10 9 9 9 11 12 13 14 15 15 17 17 17 17 18 19 20 21 22 23 24 25 26 26 27 27 27 27 28 28 28 28 28 27 27
12 13 15 17 16 16 14 13 13 13 13 12 12 14 15 16 17 18 19 19 20 20 20 21 21 22 23 25 26 27 28 28 28 29 29 29 29 29 28 28 28 28 28 27
13 14 16 17 18 18 18 16 16 16 17 17 17 18 19 20 21 21 22 22 23 23 23 24 24 25 26 27 28 29 30 30 30 30 30 31 30 30 30 29 29 28 27 27
14 15 17 19 20 21 21 20 19 19 20 22 23 23 24 25 25 25 25 26 26 27 28 27 27 28 29 30 31 32 32 32 31 31 31 31 31 30 30 29 29 28 28 27
16 15 17 20 21 20 21 21 22 22 23 25 27 28 27 27 28 29 30 30 30 30 30 31 31 31 31 32 32 34 35 34 33 31 32 32 31 30 30 29 28 28 27 27

GFSNGP_700_spd_141.txt.gz
Wind_Speed
8 6 11 13 11 10 10 12 6 7 9 8 11 11 9 12 16 17 18 20 21 22 23 24 25 25 26 28 27 30 32 32 30 30 25 17 6 6 13 22 37 21 45 58
12 10 9 9 11 9 10 9 6 7 8 6 12 13 12 12 16 18 19 21 22 22 23 23 24 25 26 26 27 28 23 24 27 27 28 29 22 9 5 9 19 22 27 33
6 15 15 8 14 17 16 12 9 9 9 9 11 13 13 13 15 20 21 22 22 22 23 23 25 26 26 26 26 26 25 23 19 20 23 25 32 25 17 5 1 1 5 9
7 16 3 8 12 20 20 14 11 10 9 9 11 15 15 15 17 21 21 21 21 21 21 23 23 25 25 25 25 24 22 22 23 23 23 21 21 22 24 23 18 18 17 16
6 6 3 5 12 13 15 11 10 11 9 5 10 15 18 16 17 20 19 19 20 20 21 22 23 22 23 24 24 25 22 21 22 24 24 22 18 16 15 13 13 12 11 6
8 4 5 5 8 6 6 8 11 6 6 9 8 13 15 15 15 14 14 16 17 18 19 20 21 22 23 24 23 23 23 27 24 20 20 19 17 16 14 14 13 14 14 11
13 3 1 12 12 7 7 6 6 5 9 7 7 8 10 10 9 12 14 15 17 18 19 19 20 20 22 23 25 24 23 22 23 26 24 20 18 17 16 15 15 15 16 16
13 4 6 16 13 11 8 6 6 8 7 5 5 6 8 10 11 13 14 16 17 17 19 19 20 20 20 20 21 23 24 24 22 20 19 20 20 18 17 16 16 16 17 17
9 10 10 13 14 8 8 8 8 6 6 6 7 8 9 11 12 14 16 17 17 18 19 20 21 21 21 20 20 20 22 22 22 22 21 20 19 19 18 18 17 16 16 17
14 13 8 11 10 9 8 8 7 6 6 7 8 10 11 13 14 14 15 17 18 18 18 19 20 22 22 22 21 21 20 21 22 22 22 21 20 19 19 19 18 17 18 17
17 17 17 10 11 9 8 6 5 5 7 9 11 12 13 13 14 14 14 15 16 17 19 19 20 21 21 21 22 22 21 20 21 22 22 23 24 22 21 21 20 20 20 20
20 21 15 11 9 8 7 6 6 6 8 10 11 12 11 12 13 13 13 14 15 17 18 19 20 21 22 22 22 23 23 22 20 20 20 21 21 23 24 24 25 24 23 22
9 9 9 9 7 8 8 7 6 9 9 10 10 10 9 10 10 11 12 13 15 17 19 20 21 23 23 24 24 25 24 24 25 24 22 21 21 21 20 22 25 24 25 25
10 10 9 8 7 8 6 6 7 8 8 7 7 7 7 7 8 10 12 14 16 17 18 19 21 22 24 25 26 27 28 27 26 26 26 25 24 22 21 20 20 21 23 23
11 10 10 9 8 7 7 6 6 6 6 5 4 4 5 6 8 9 12 14 14 15 17 19 20 22 24 25 26 26 27 28 29 29 29 29 28 27 26 24 22 22 21 22
10 11 11 10 8 6 6 5 5 5 3 2 2 3 5 5 7 10 11 11 12 14 15 17 18 20 22 23 24 25 26 27 27 28 28 28 28 29 28 28 27 25 23 21
9 10 9 8 6 4 5 6 4 2 1 1 1 2 2 5 7 7 8 9 10 12 14 15 17 19 21 22 23 24 25 26 27 27 27 27 28 28 29 29 29 29 29 28
9 9 8 6 4 5 6 5 4 3 2 2 2 1 2 4 5 5 6 7 9 11 13 15 17 18 19 21 22 23 24 25 26 27 28 29 29 29 30 30 30 30 29 28
9 9 7 5 4 5 6 6 5 4 3 4 3 2 2 2 3 4 5 6 8 10 12 14 16 17 19 20 21 22 23 24 24 26 27 28 28 29 29 30 30 30 30 30
8 5 4 4 6 7 8 8 6 5 5 5 4 3 3 4 5 6 7 7 9 10 12 13 14 16 17 19 20 21 22 23 24 25 26 27 28 28 29 29 30 30 30 30
7 7 6 7 8 9 9 8 7 7 7 6 5 5 6 7 8 9 10 12 12 12 13 15 17 17 18 19 21 22 23 25 25 26 27 27 28 29 29 30 29 30 30 29
9 9 7 9 11 11 12 11 10 9 9 8 6 7 8 9 11 14 14 14 16 16 16 18 19 20 20 21 21 23 24 26 27 27 28 29 29 29 29 30 31 30 30 30
8 9 8 11 13 14 14 13 13 12 12 11 11 11 11 13 16 18 17 19 18 21 20 22 22 22 23 24 24 25 26 28 30 31 31 31 30 30 31 31 31 31 30 30
9 9 10 13 14 15 15 16 16 16 15 15 15 16 17 18 19 21 20 21 23 24 24 25 25 26 27 27 28 29 30 30 31 33 34 34 33 32 32 32 33 32 31 30
11 11 11 13 15 17 18 19 19 19 19 19 19 20 21 22 24 25 23 24 27 28 28 28 28 29 31 31 31 32 33 33 33 33 35 35 34 33 32 32 33 32 31 29
12 11 12 13 15 18 19 20 21 22 23 23 22 23 24 25 26 27 28 28 28 29 30 31 31 31 34 35 35 35 35 35 35 34 35 36 35 34 32 32 32 32 31 29
13 12 14 16 16 18 20 20 22 23 24 26 27 27 27 27 28 29 30 30 31 31 31 33 33 34 34 35 36 36 36 36 35 35 35 34 33 32 31 31 32 31 29 29

GFSNGP_700_spd_144.txt.gz
Wind_Speed
9 9 24 22 22 19 17 15 12 16 17 12 12 14 10 13 14 15 18 18 17 20 20 21 22 22 24 26 27 28 28 25 22 28 30 31 25 20 14 7 3 10 20 26
18 10 11 19 17 14 15 15 16 14 14 10 12 12 11 13 14 16 20 19 19 20 22 21 22 22 23 24 25 27 28 26 24 20 22 27 24 28 24 23 16 5 4 19
13 13 12 12 18 17 21 19 14 15 11 12 14 13 12 14 14 16 19 19 19 20 21 22 22 22 23 24 24 24 24 25 25 24 23 21 23 24 24 26 26 22 18 13
9 15 4 10 14 22 20 17 17 13 14 16 15 15 15 14 12 16 17 18 18 18 20 21 21 22 22 22 23 24 23 22 23 23 25 25 24 22 23 25 23 23 22 22
9 13 3 12 15 20 22 20 19 16 17 16 13 13 15 12 11 15 15 16 18 19 19 20 20 20 21 21 21 23 22 22 22 23 24 23 22 23 23 23 23 24 25 23
12 4 6 7 12 15 12 16 17 13 12 9 11 11 10 10 11 13 14 17 18 19 20 21 21 20 20 20 21 22 22 22 24 22 23 23 22 23 23 23 23 23 23 20
10 4 5 7 8 9 8 7 6 7 6 8 11 10 8 7 9 12 14 15 17 19 20 21 22 22 22 20 19 20 21 22 22 24 22 20 22 22 21 23 23 22 21 20
15 6 8 11 12 12 7 6 4 6 7 7 9 7 7 8 9 11 14 15 17 18 19 20 21 21 22 22 20 18 19 19 20 21 23 23 22 20 21 22 21 22 22 20
14 11 11 7 16 12 10 7 6 7 7 7 6 6 7 8 10 12 15 16 17 18 18 19 20 21 21 20 20 18 17 18 19 20 19 20 23 22 21 19 19 19 18 17
13 13 11 12 11 10 9 8 7 6 5 5 5 7 8 9 10 12 14 15 15 15 16 16 17 19 20 21 20 19 18 18 18 18 18 19 18 21 20 19 19 18 18 18
22 18 14 14 12 11 10 8 7 6 5 5 7 9 10 10 9 10 10 11 12 13 14 15 17 19 20 21 22 22 22 21 20 21 22 22 21 20 19 20 22 21 20 19
17 15 17 13 11 12 10 8 7 6 6 7 8 8 9 8 7 7 8 9 10 12 13 15 17 18 20 21 22 25 26 27 28 27 27 27 27 26 24 23 23 23 23 23
11 10 9 12 11 11 10 8 7 6 8 8 6 5 5 4 5 5 7 8 10 11 13 15 16 18 19 20 22 24 25 27 29 29 29 30 30 30 30 31 28 26 25 25
10 8 9 10 10 10 10 9 8 7 7 5 4 2 2 2 3 4 6 7 10 12 13 14 16 17 19 21 23 24 26 27 28 30 31 31 30 30 29 29 29 30 29 28
10 9 10 10 11 12 11 9 7 6 5 3 2 1 0 2 2 3 5 8 9 10 11 12 14 16 17 19 21 23 25 26 28 29 30 31 32 33 32 31 29 27 27 27
9 11 12 12 12 11 8 7 7 5 4 4 3 2 1 0 1 3 5 6 6 8 9 11 12 13 15 17 19 21 22 24 25 26 27 28 29 30 31 32 33 33 32 31
10 12 14 13 10 8 7 7 5 5 5 3 3 3 2 2 1 2 3 3 5 6 7 8 10 12 14 16 17 19 21 22 23 25 26 27 29 29 30 31 32 33 34 35
14 14 13 11 8 7 7 6 7 7 5 5 4 4 4 3 1 1 3 3 4 5 7 8 10 12 14 16 17 19 20 22 23 24 25 26 28 29 30 31 32 32 33 33
12 12 10 9 8 8 7 7 7 6 5 6 6 7 6 4 3 4 6 7 6 8 10 11 12 13 15 16 18 19 21 22 24 25 26 26 27 28 28 30 31 31 32 32
12 11 10 10 9 8 9 8 7 7 6 7 8 8 7 6 6 8 9 10 11 12 15 15 15 16 18 19 21 22 23 24 25 26 27 29 29 30 30 30 30 31 32 33
11 11 12 11 9 9 10 9 8 8 8 9 10 10 9 8 9 11 13 14 15 16 19 20 19 20 21 22 24 24 25 25 26 27 29 30 31 32 32 33 32 32 32 33
11 11 11 10 9 9 11 11 11 11 10 11 13 12 11 11 13 14 15 16 18 19 21 22 23 24 25 26 27 28 28 29 30 31 32 32 33 34 35 35 34 34 33 33
10 10 11 10 10 10 13 14 15 15 14 14 15 15 15 16 17 19 20 19 20 21 23 25 26 27 28 29 30 31 31 32 34 35 35 35 35 35 35 35 35 34 34 33
10 12 12 10 10 11 12 15 18 19 19 19 18 18 18 20 21 22 23 24 24 25 26 27 28 30 31 32 33 34 36 35 36 37 38 38 37 36 36 36 36 35 33 33
12 12 12 11 11 12 15 17 19 20 22 22 22 22 23 23 24 24 25 25 27 28 28 29 30 32 33 34 35 36 36 37 37 37 37 37 37 36 36 36 35 34 34 33
13 13 13 12 12 12 14 16 18 20 22 24 25 26 27 27 28 27 27 29 29 29 30 31 31 32 33 34 35 36 37 37 37 37 37 36 36 36 35 34 34 33 33 33
12 13 14 14 14 15 16 17 18 20 23 25 27 29 29 29 29 29 29 30 30 31 32 32 33 33 34 34 34 35 36 36 36 36 35 35 35 34 34 33 33 33 33 33

GFSNGP_700_spd_147.txt.gz
Wind_Speed
26 23 23 25 32 31 29 26 21 22 20 18 17 16 13 13 14 15 16 18 20 21 21 22 23 24 25 26 25 25 26 27 27 26 26 26 29 31 30 32 30 22 16 14
24 21 18 23 28 29 25 23 21 21 20 15 14 13 11 13 14 14 15 18 19 19 19 19 20 22 23 24 25 24 23 24 26 26 24 23 22 24 26 26 27 30 26 23
13 18 17 17 26 26 24 22 22 21 14 13 12 13 13 14 13 14 15 17 16 16 17 18 20 21 22 24 25 25 23 22 23 22 22 23 23 24 21 20 20 24 27 26
5 18 8 12 21 23 22 22 19 16 14 14 13 13 15 15 12 12 14 14 15 17 19 20 20 21 22 23 24 25 24 23 21 22 22 21 23 22 23 25 25 22 20 25
10 15 7 15 21 26 27 23 22 19 17 15 14 13 15 13 11 11 12 14 17 19 20 22 23 23 22 22 23 24 24 23 21 20 23 23 21 22 24 24 23 25 25 24
14 8 5 14 13 19 16 21 18 19 17 14 11 12 11 10 11 12 13 16 18 19 21 23 24 24 24 23 23 23 24 23 22 21 20 23 24 22 23 23 26 26 25 22
15 9 8 11 11 14 13 4 5 8 11 9 9 9 9 9 10 12 14 15 18 20 21 22 23 23 23 23 22 22 22 21 20 20 20 20 21 23 22 22 22 22 23 24
15 9 8 12 13 14 8 6 4 6 8 8 8 7 8 9 11 12 13 16 18 19 19 19 20 20 20 20 20 19 20 21 20 19 19 19 20 20 22 21 21 19 19 19
18 13 12 5 15 11 9 7 6 7 8 7 7 8 8 9 11 12 13 15 15 15 15 15 16 17 18 19 19 20 20 21 21 21 19 19 19 19 19 19 19 20 20 20
17 21 15 14 13 12 10 9 8 7 6 6 7 8 8 9 10 12 12 11 10 10 11 13 14 15 17 18 19 19 21 23 23 24 25 24 24 22 21 21 20 18 21 21
25 17 13 14 14 13 11 10 8 7 6 7 8 7 7 8 8 8 7 7 7 8 10 11 13 15 17 18 18 19 19 21 23 24 25 26 27 28 29 29 31 30 29 26
23 20 16 11 11 12 12 11 9 8 8 7 6 7 6 6 5 4 4 4 6 7 9 10 12 14 16 17 18 19 20 20 21 24 26 28 29 29 30 30 30 31 31 32
14 13 13 15 13 14 13 10 10 9 7 6 6 5 4 3 2 1 2 4 5 6 8 11 13 14 15 17 17 19 20 21 22 23 24 26 28 29 31 33 33 32 32 31
13 11 10 10 10 11 12 11 11 8 6 6 6 5 3 3 1 0 2 2 4 6 8 10 11 12 14 15 17 17 18 19 20 21 22 24 25 25 26 27 28 30 31 31
13 11 11 10 11 12 12 12 8 7 7 7 7 5 4 3 3 2 2 3 4 5 6 7 9 11 12 13 14 16 18 19 20 21 21 21 22 24 25 26 26 27 28 29
11 11 11 10 11 13 12 10 9 9 9 8 8 6 5 5 4 4 3 2 2 3 4 6 8 10 11 12 14 16 18 20 22 23 24 25 25 24 23 23 25 26 28 29
11 11 12 14 14 13 11 11 10 10 10 10 8 7 6 6 6 5 2 1 3 4 5 7 9 11 13 14 16 19 21 22 24 25 26 28 30 31 32 33 32 32 31 31
16 17 15 12 11 10 8 8 9 11 11 10 8 8 7 7 8 6 4 5 7 7 7 9 12 14 16 17 19 20 22 24 26 27 29 30 31 32 34 36 37 38 39 38
11 12 13 13 11 10 9 10 11 12 10 10 9 9 9 9 9 7 7 8 10 11 12 13 15 17 19 21 22 23 24 26 28 29 31 32 33 34 35 37 38 39 39 40
12 13 13 12 10 9 9 12 13 12 12 11 9 9 10 11 11 10 10 11 13 16 17 18 19 20 21 24 25 26 27 29 30 31 33 34 35 36 37 39 39 40 40 40
13 12 12 11 11 9 9 12 14 15 14 12 11 11 13 13 14 14 14 15 18 20 22 22 22 24 25 26 27 29 31 32 33 35 36 37 38 39 40 40 40 40 40 40
13 13 12 11 11 10 10 14 17 17 15 14 12 11 12 14 16 18 19 20 21 22 24 25 26 26 28 30 31 32 33 35 36 37 38 39 40 40 41 41 41 40 40 40
15 15 13 12 13 12 11 14 18 19 19 18 17 16 15 16 17 19 22 23 23 24 26 27 28 29 30 32 34 35 36 37 38 39 40 41 41 41 41 41 41 40 40 39
13 12 12 12 11 11 12 16 19 22 23 22 21 21 20 19 21 23 25 26 27 27 29 30 31 31 32 34 35 36 37 38 39 39 40 41 41 41 41 40 40 39 39 37
13 12 12 12 13 14 15 16 17 19 23 25 25 26 26 26 27 28 27 29 29 30 32 33 33 34 34 35 36 37 38 39 39 38 39 39 39 39 39 38 38 38 37 36
13 14 15 15 16 16 16 16 16 19 21 23 26 28 30 32 32 32 32 32 32 33 34 34 34 35 36 36 37 37 37 37 37 37 37 38 38 37 37 36 36 36 36 36
12 14 15 16 18 19 19 19 18 20 21 22 25 28 30 32 33 34 34 34 35 35 35 35 35 35 36 36 36 36 36 36 36 36 36 36 36 36 36 35 36 36 36 35